KAR3478 VTSP-UUEE

Flight info

Callsign KAR3478
Flight time N/A
Altitude 34000
Route UPSAB L515 OBMOG M770 BUBKO/N0494F360 M770 KAKID M875 JHANG/N0489F380 M875 LEBIB A466 SITAX M875 AMDAR/K0887F380 M875 MILSO M161 LOGTO/K0893F400 M161 URL M166 ARISA L736 OLOPI
Aircraft B772/H-SDE2E3FGHIJ5LORVWXY/LB1D1

Departure

Time 2026-05-05 10:39
Airport Phuket International Airport (VTSP)

Arrival

Time N/A
Airport Sheremetyevo International Airport (UUEE)
Time Latitude Longitude Altitude Speed Heading
2026-05-05 10:30 8.10708 98.30404 97 ft 8 kts 15°
2026-05-05 10:31 8.10774 98.30423 97 ft 11 kts 15°
2026-05-05 10:31 8.10858 98.30444 97 ft 13 kts 14°
2026-05-05 10:31 8.10957 98.30468 97 ft 15 kts 13°
2026-05-05 10:31 8.11044 98.30526 97 ft 16 kts 72°
2026-05-05 10:32 8.11062 98.30646 97 ft 18 kts 85°
2026-05-05 10:32 8.11073 98.30782 97 ft 20 kts 84°
2026-05-05 10:32 8.11094 98.30927 97 ft 21 kts 71°
2026-05-05 10:32 8.11130 98.31078 97 ft 22 kts 83°
2026-05-05 10:33 8.11144 98.31235 97 ft 22 kts 85°
2026-05-05 10:33 8.11157 98.31383 97 ft 21 kts 85°
2026-05-05 10:33 8.11172 98.31535 97 ft 19 kts 85°
2026-05-05 10:33 8.11183 98.31667 97 ft 18 kts 84°
2026-05-05 10:34 8.11196 98.31798 97 ft 17 kts 84°
2026-05-05 10:34 8.11207 98.31920 97 ft 17 kts 84°
2026-05-05 10:34 8.11217 98.32034 97 ft 16 kts 85°
2026-05-05 10:34 8.11228 98.32146 97 ft 15 kts 84°
2026-05-05 10:35 8.11240 98.32264 97 ft 17 kts 84°
2026-05-05 10:35 8.11252 98.32392 97 ft 19 kts 84°
2026-05-05 10:35 8.11266 98.32529 97 ft 20 kts 84°
2026-05-05 10:35 8.11291 98.32612 97 ft 11 kts 49°
2026-05-05 10:36 8.11303 98.32623 97 ft 0 kts 36°
2026-05-05 10:36 8.11318 98.32629 97 ft 5 kts 17°
2026-05-05 10:36 8.11371 98.32640 97 ft 10 kts 19°
2026-05-05 10:36 8.11418 98.32712 97 ft 15 kts 79°
2026-05-05 10:37 8.11431 98.32837 97 ft 19 kts 85°
2026-05-05 10:37 8.11481 98.32962 97 ft 14 kts 58°
2026-05-05 10:37 8.11452 98.33008 97 ft 10 kts 228°
2026-05-05 10:37 8.11442 98.32961 97 ft 0 kts 265°
2026-05-05 10:38 8.11437 98.32901 97 ft 34 kts 265°
2026-05-05 10:38 8.11389 98.32407 97 ft 107 kts 264°
2026-05-05 10:38 8.11295 98.31415 99 ft 169 kts 263°
2026-05-05 10:39 8.11167 98.30076 506 ft 195 kts 264°
2026-05-05 10:39 8.11046 98.28760 1502 ft 187 kts 264°
2026-05-05 10:39 8.10924 98.27458 1928 ft 193 kts 264°
2026-05-05 10:39 8.10791 98.26050 2149 ft 209 kts 264°
2026-05-05 10:40 8.10648 98.24533 2341 ft 227 kts 264°
2026-05-05 10:40 8.10516 98.22890 2645 ft 242 kts 271°
2026-05-05 10:40 8.10923 98.21203 2889 ft 259 kts 298°
2026-05-05 10:40 8.12147 98.19843 3390 ft 266 kts 326°
2026-05-05 10:41 8.13853 98.19246 3905 ft 272 kts 354°
2026-05-05 10:41 8.15763 98.19241 4477 ft 275 kts 360°
2026-05-05 10:41 8.17666 98.19313 5044 ft 277 kts
2026-05-05 10:41 8.19640 98.19393 5628 ft 279 kts
2026-05-05 10:42 8.23563 98.19553 6755 ft 282 kts
2026-05-05 10:42 8.25566 98.19635 7307 ft 284 kts
2026-05-05 10:42 8.27528 98.19715 7833 ft 286 kts
2026-05-05 10:43 8.29582 98.19800 8374 ft 288 kts
2026-05-05 10:43 8.31570 98.19805 8867 ft 288 kts 349°
2026-05-05 10:43 8.33479 98.19204 9345 ft 288 kts 335°
2026-05-05 10:43 8.35297 98.18353 9918 ft 288 kts 333°
2026-05-05 10:44 8.37110 98.17465 10298 ft 295 kts 333°
2026-05-05 10:44 8.39010 98.16536 10445 ft 311 kts 333°
2026-05-05 10:44 8.40974 98.15578 10572 ft 326 kts 333°
2026-05-05 10:44 8.43088 98.14549 10676 ft 340 kts 333°
2026-05-05 10:45 8.45243 98.13500 10750 ft 354 kts 333°
2026-05-05 10:45 8.47539 98.12383 10808 ft 367 kts 333°
2026-05-05 10:45 8.49972 98.11199 11017 ft 374 kts 333°
2026-05-05 10:45 8.52327 98.10053 11378 ft 376 kts 333°
2026-05-05 10:46 8.54694 98.08901 11755 ft 378 kts 333°
2026-05-05 10:46 8.57052 98.07752 12129 ft 379 kts 333°
2026-05-05 10:46 8.59402 98.06573 12496 ft 382 kts 332°
2026-05-05 10:46 8.61803 98.05362 12876 ft 384 kts 332°
2026-05-05 10:47 8.64200 98.04153 13264 ft 387 kts 332°
2026-05-05 10:47 8.66605 98.02943 13664 ft 389 kts 332°
2026-05-05 10:47 8.69038 98.01717 14075 ft 392 kts 332°
2026-05-05 10:47 8.71457 98.00500 14489 ft 395 kts 332°
2026-05-05 10:48 8.73932 97.99254 14919 ft 397 kts 332°
2026-05-05 10:48 8.76392 97.98016 15351 ft 400 kts 332°
2026-05-05 10:48 8.78878 97.96764 15784 ft 403 kts 332°
2026-05-05 10:48 8.81390 97.95499 16210 ft 406 kts 332°
2026-05-05 10:49 8.83928 97.94221 16643 ft 409 kts 332°
2026-05-05 10:49 8.86477 97.92937 17071 ft 412 kts 332°
2026-05-05 10:49 8.89052 97.91641 17496 ft 415 kts 332°
2026-05-05 10:49 8.91619 97.90347 17913 ft 418 kts 332°
2026-05-05 10:50 8.94237 97.89029 18328 ft 421 kts 332°
2026-05-05 10:50 8.96857 97.87708 18741 ft 423 kts 332°
2026-05-05 10:50 8.99500 97.86376 19164 ft 426 kts 332°
2026-05-05 10:50 9.02140 97.85046 19591 ft 428 kts 332°
2026-05-05 10:51 9.04791 97.83707 20007 ft 431 kts 332°
2026-05-05 10:51 9.07471 97.82354 20418 ft 434 kts 332°
2026-05-05 10:51 9.10169 97.80991 20821 ft 436 kts 332°
2026-05-05 10:51 9.12892 97.79616 21220 ft 439 kts 332°
2026-05-05 10:52 9.15637 97.78229 21611 ft 442 kts 332°
2026-05-05 10:52 9.18397 97.76834 21996 ft 445 kts 332°
2026-05-05 10:52 9.21135 97.75450 22373 ft 448 kts 332°
2026-05-05 10:52 9.23925 97.74040 22756 ft 450 kts 332°
2026-05-05 10:53 9.26766 97.72604 23139 ft 453 kts 332°
2026-05-05 10:53 9.29567 97.71188 23508 ft 456 kts 332°
2026-05-05 10:53 9.32409 97.69750 23887 ft 459 kts 332°
2026-05-05 10:53 9.35271 97.68302 24257 ft 461 kts 332°
2026-05-05 10:54 9.38106 97.66868 24612 ft 464 kts 332°
2026-05-05 10:54 9.41000 97.65403 24964 ft 467 kts 332°
2026-05-05 10:54 9.43903 97.63934 25309 ft 469 kts 332°
2026-05-05 10:54 9.46847 97.62453 25792 ft 469 kts 333°
2026-05-05 10:55 9.49742 97.60986 26373 ft 465 kts 333°
2026-05-05 10:55 9.52612 97.59531 26748 ft 466 kts 333°
2026-05-05 10:55 9.55497 97.58067 26978 ft 470 kts 333°
2026-05-05 10:55 9.58458 97.56567 27238 ft 473 kts 333°
2026-05-05 10:56 9.61397 97.55077 27536 ft 475 kts 333°
2026-05-05 10:56 9.64323 97.53593 27833 ft 477 kts 333°
2026-05-05 10:56 9.67302 97.52082 28120 ft 479 kts 333°
2026-05-05 10:56 9.70274 97.50575 28395 ft 481 kts 333°
2026-05-05 10:57 9.73267 97.49058 28665 ft 483 kts 333°
2026-05-05 10:57 9.76273 97.47533 28931 ft 485 kts 333°
2026-05-05 10:57 9.79271 97.46011 29189 ft 487 kts 333°
2026-05-05 10:57 9.82318 97.44465 29445 ft 489 kts 333°
2026-05-05 10:58 9.85349 97.42927 29693 ft 491 kts 333°
2026-05-05 10:58 9.88394 97.41381 29936 ft 492 kts 333°
2026-05-05 10:58 9.91449 97.39829 30175 ft 494 kts 333°
2026-05-05 10:58 9.94534 97.38263 30471 ft 495 kts 333°
2026-05-05 10:59 9.97598 97.36706 30845 ft 493 kts 333°
2026-05-05 10:59 10.00636 97.35163 31232 ft 491 kts 333°
2026-05-05 10:59 10.03708 97.33614 31601 ft 490 kts 334°
2026-05-05 10:59 10.06778 97.32072 31946 ft 490 kts 334°
2026-05-05 11:00 10.09811 97.30547 32275 ft 489 kts 334°
2026-05-05 11:00 10.12876 97.29006 32612 ft 489 kts 333°
2026-05-05 11:00 10.15902 97.27484 32953 ft 488 kts 333°
2026-05-05 11:00 10.18922 97.25964 33294 ft 487 kts 333°
2026-05-05 11:01 10.21940 97.24446 33627 ft 486 kts 333°
2026-05-05 11:01 10.24982 97.22914 33957 ft 485 kts 333°
2026-05-05 11:01 10.28010 97.21389 34065 ft 487 kts 333°
2026-05-05 11:02 10.34059 97.18342 34071 ft 485 kts 333°
2026-05-05 11:02 10.40110 97.15292 34072 ft 485 kts 333°
2026-05-05 11:03 10.46149 97.12247 34072 ft 485 kts 333°
2026-05-05 11:03 10.52180 97.09204 34072 ft 485 kts 333°
2026-05-05 11:04 10.58188 97.06171 34072 ft 485 kts 333°
2026-05-05 11:04 10.64225 97.03123 34072 ft 485 kts 333°
2026-05-05 11:05 10.70280 97.00065 34072 ft 485 kts 333°
2026-05-05 11:05 10.76347 96.96999 34072 ft 485 kts 333°
2026-05-05 11:06 10.82351 96.93963 34072 ft 485 kts 333°
2026-05-05 11:06 10.87043 96.91589 34072 ft 485 kts 333°
2026-05-05 11:07 10.92294 96.88932 34128 ft 489 kts 335°
2026-05-05 11:07 10.98401 96.85841 34133 ft 498 kts 335°
2026-05-05 11:08 11.04618 96.82692 34129 ft 495 kts 336°
2026-05-05 11:08 11.10770 96.79575 34131 ft 495 kts 336°
2026-05-05 11:09 11.16902 96.76466 34131 ft 494 kts 336°
2026-05-05 11:09 11.23080 96.73333 34131 ft 494 kts 336°
2026-05-05 11:10 11.29208 96.70224 34132 ft 494 kts 336°
2026-05-05 11:10 11.35365 96.67097 34132 ft 494 kts 336°
2026-05-05 11:11 11.41540 96.63961 34132 ft 494 kts 336°
2026-05-05 11:11 11.47679 96.60841 34132 ft 494 kts 336°
2026-05-05 11:12 11.53837 96.57711 34132 ft 494 kts 336°
2026-05-05 11:12 11.59953 96.54600 34132 ft 494 kts 336°
2026-05-05 11:13 11.66123 96.51460 34132 ft 494 kts 336°
2026-05-05 11:13 11.72250 96.48340 34132 ft 494 kts 336°
2026-05-05 11:14 11.78425 96.45194 34133 ft 494 kts 336°
2026-05-05 11:14 11.84542 96.42077 34133 ft 494 kts 336°
2026-05-05 11:15 11.90503 96.38554 34133 ft 498 kts 324°
2026-05-05 11:15 11.95593 96.33676 34128 ft 502 kts 317°
2026-05-05 11:16 12.00512 96.28629 34127 ft 502 kts 317°
2026-05-05 11:16 12.05421 96.23591 34127 ft 501 kts 317°
2026-05-05 11:17 12.10370 96.18510 34128 ft 501 kts 317°
2026-05-05 11:17 12.15294 96.13454 34129 ft 501 kts 317°
2026-05-05 11:18 12.20197 96.08416 34129 ft 501 kts 317°
2026-05-05 11:18 12.25120 96.03355 34129 ft 501 kts 317°
2026-05-05 11:19 12.30017 95.98319 34130 ft 502 kts 317°
2026-05-05 11:19 12.34940 95.93253 34130 ft 501 kts 317°
2026-05-05 11:20 12.39866 95.88180 34130 ft 501 kts 317°
2026-05-05 11:20 12.44774 95.83124 34130 ft 501 kts 317°
2026-05-05 11:21 12.49696 95.78051 34131 ft 501 kts 317°
2026-05-05 11:21 12.54600 95.72993 34131 ft 501 kts 317°
2026-05-05 11:22 12.59499 95.67937 34047 ft 503 kts 317°
2026-05-05 11:22 12.61968 95.65388 33909 ft 502 kts 317°
2026-05-05 11:22 12.64429 95.62846 33901 ft 500 kts 317°
2026-05-05 11:23 12.69340 95.57773 33906 ft 502 kts 317°
2026-05-05 11:23 12.74255 95.52691 33912 ft 502 kts 317°
2026-05-05 11:24 12.79163 95.47613 33920 ft 502 kts 317°
2026-05-05 11:24 12.84077 95.42529 33922 ft 502 kts 317°
2026-05-05 11:25 12.88960 95.37382 33923 ft 502 kts 316°
2026-05-05 11:25 12.93793 95.32234 33917 ft 502 kts 316°
2026-05-05 11:26 12.98636 95.27079 33917 ft 503 kts 316°
2026-05-05 11:26 13.03492 95.21909 33917 ft 504 kts 316°
2026-05-05 11:27 13.08369 95.16716 33917 ft 505 kts 316°
2026-05-05 11:27 13.13239 95.11527 33918 ft 506 kts 316°
2026-05-05 11:28 13.18143 95.06300 33919 ft 506 kts 316°
2026-05-05 11:28 13.23004 95.01115 33919 ft 506 kts 316°
2026-05-05 11:29 13.27881 94.95909 33919 ft 506 kts 316°
2026-05-05 11:29 13.32754 94.90705 33920 ft 506 kts 316°
2026-05-05 11:30 13.37635 94.85490 33920 ft 506 kts 316°
2026-05-05 11:30 13.42500 94.80288 33921 ft 506 kts 316°
2026-05-05 11:31 13.47384 94.75062 33921 ft 506 kts 316°
2026-05-05 11:31 13.52256 94.69846 33921 ft 506 kts 316°
2026-05-05 11:32 13.57114 94.64642 33922 ft 506 kts 316°
2026-05-05 11:32 13.61984 94.59422 33922 ft 506 kts 316°
2026-05-05 11:33 13.66833 94.54221 33922 ft 506 kts 316°
2026-05-05 11:33 13.71719 94.48977 33923 ft 506 kts 316°
2026-05-05 11:34 13.76592 94.43743 33923 ft 506 kts 316°
2026-05-05 11:34 13.81435 94.38538 33923 ft 505 kts 316°
2026-05-05 11:35 13.86292 94.33316 33918 ft 506 kts 315°
2026-05-05 11:35 13.91166 94.28071 33917 ft 506 kts 315°
2026-05-05 11:36 13.96047 94.22815 33917 ft 506 kts 315°
2026-05-05 11:36 14.00879 94.17609 33918 ft 506 kts 315°
2026-05-05 11:37 14.05770 94.12336 33919 ft 506 kts 315°
2026-05-05 11:37 14.10586 94.07140 33961 ft 505 kts 315°
2026-05-05 11:38 14.15439 94.01901 33961 ft 505 kts 315°
2026-05-05 11:38 14.20311 93.96638 33961 ft 505 kts 315°
2026-05-05 11:39 14.25159 93.91397 33962 ft 505 kts 315°
2026-05-05 11:39 14.29988 93.86174 33962 ft 505 kts 315°
2026-05-05 11:40 14.34838 93.80924 33962 ft 505 kts 315°
2026-05-05 11:40 14.39697 93.75660 33963 ft 505 kts 315°
2026-05-05 11:41 14.44544 93.70406 33963 ft 505 kts 315°
2026-05-05 11:41 14.49380 93.65161 33964 ft 505 kts 315°
2026-05-05 11:42 14.54225 93.59902 33964 ft 505 kts 315°
2026-05-05 11:42 14.59077 93.54633 33964 ft 505 kts 315°
2026-05-05 11:43 14.63927 93.49361 33965 ft 505 kts 315°
2026-05-05 11:43 14.68773 93.44090 33965 ft 505 kts 315°
2026-05-05 11:44 14.73576 93.38863 33965 ft 505 kts 315°
2026-05-05 11:44 14.78410 93.33599 33961 ft 505 kts 315°
2026-05-05 11:45 14.83253 93.28321 33959 ft 505 kts 315°
2026-05-05 11:45 14.88088 93.23048 33960 ft 505 kts 315°
2026-05-05 11:46 14.92914 93.17781 33958 ft 507 kts 315°
2026-05-05 11:46 14.97790 93.12457 33959 ft 509 kts 315°
2026-05-05 11:47 15.02672 93.07121 33962 ft 512 kts 315°
2026-05-05 11:47 15.07575 93.01758 33959 ft 512 kts 315°
2026-05-05 11:48 15.14895 92.93744 33953 ft 512 kts 314°
2026-05-05 11:48 15.19800 92.88371 33958 ft 511 kts 314°
2026-05-05 11:49 15.24692 92.83006 33955 ft 511 kts 314°
2026-05-05 11:49 15.29546 92.77679 33949 ft 511 kts 314°
2026-05-05 11:50 15.34451 92.72294 33948 ft 511 kts 314°
2026-05-05 11:50 15.39329 92.66934 33951 ft 511 kts 314°
2026-05-05 11:51 15.44209 92.61596 33946 ft 511 kts 316°
2026-05-05 11:51 15.49262 92.56360 33941 ft 511 kts 316°
2026-05-05 11:52 15.54292 92.51152 33941 ft 511 kts 316°
2026-05-05 11:52 15.59310 92.45944 33941 ft 511 kts 316°
2026-05-05 11:53 15.64319 92.40736 33936 ft 512 kts 316°
2026-05-05 11:53 15.69353 92.35496 33930 ft 512 kts 316°
2026-05-05 11:54 15.74365 92.30273 33928 ft 512 kts 316°
2026-05-05 11:54 15.79400 92.25021 33927 ft 512 kts 316°
2026-05-05 11:55 15.84413 92.19788 33921 ft 512 kts 316°
2026-05-05 11:55 15.89437 92.14539 33919 ft 512 kts 316°
2026-05-05 11:56 15.94434 92.09315 33924 ft 512 kts 316°
2026-05-05 11:56 15.99458 92.04057 33923 ft 512 kts 316°
2026-05-05 11:57 16.04452 91.98829 33921 ft 512 kts 316°
2026-05-05 11:57 16.09468 91.93572 33921 ft 512 kts 316°
2026-05-05 11:58 16.14483 91.88313 33919 ft 512 kts 316°
2026-05-05 11:58 16.19507 91.83041 33919 ft 512 kts 316°
2026-05-05 11:59 16.24482 91.77814 33920 ft 512 kts 316°
2026-05-05 11:59 16.29511 91.72529 33920 ft 512 kts 316°
2026-05-05 12:00 16.34517 91.67263 33921 ft 512 kts 316°
2026-05-05 12:00 16.39532 91.61983 33921 ft 512 kts 316°
2026-05-05 12:01 16.44515 91.56734 33922 ft 512 kts 316°
2026-05-05 12:01 16.49525 91.51451 33922 ft 512 kts 316°
2026-05-05 12:02 16.54513 91.46188 33923 ft 512 kts 316°
2026-05-05 12:02 16.59533 91.40886 33923 ft 511 kts 316°
2026-05-05 12:03 16.64513 91.35623 33924 ft 511 kts 316°
2026-05-05 12:03 16.69499 91.30349 33918 ft 511 kts 315°
2026-05-05 12:04 16.74502 91.25053 33918 ft 511 kts 315°
2026-05-05 12:04 16.79474 91.19786 33919 ft 511 kts 315°
2026-05-05 12:05 16.84452 91.14510 33919 ft 510 kts 315°
2026-05-05 12:05 16.89459 91.09197 33920 ft 509 kts 315°
2026-05-05 12:06 16.94419 91.03929 33920 ft 508 kts 315°
2026-05-05 12:06 16.99351 90.98687 33921 ft 506 kts 315°
2026-05-05 12:07 17.04264 90.93462 33922 ft 504 kts 314°
2026-05-05 12:07 17.09168 90.88243 34107 ft 502 kts 314°
2026-05-05 12:08 17.14023 90.83070 34106 ft 500 kts 314°
2026-05-05 12:08 17.18911 90.77859 34107 ft 500 kts 314°
2026-05-05 12:09 17.23748 90.72697 34107 ft 500 kts 314°
2026-05-05 12:09 17.28637 90.67477 34108 ft 500 kts 314°
2026-05-05 12:10 17.33510 90.62270 34108 ft 500 kts 314°
2026-05-05 12:10 17.38359 90.57083 34108 ft 500 kts 314°
2026-05-05 12:11 17.43239 90.51903 34109 ft 500 kts 314°
2026-05-05 12:11 17.48185 90.46752 34109 ft 500 kts 314°
2026-05-05 12:12 17.53125 90.41601 34109 ft 500 kts 314°
2026-05-05 12:12 17.58022 90.36486 34109 ft 500 kts 314°
2026-05-05 12:13 17.62965 90.31317 34108 ft 500 kts 314°
2026-05-05 12:13 17.67880 90.26173 34109 ft 500 kts 314°
2026-05-05 12:14 17.72796 90.21024 34109 ft 500 kts 314°
2026-05-05 12:14 17.77712 90.15868 34109 ft 500 kts 314°
2026-05-05 12:15 17.82635 90.10701 34109 ft 500 kts 314°
2026-05-05 12:15 17.87546 90.05544 34110 ft 500 kts 314°
2026-05-05 12:16 17.92445 90.00394 34110 ft 500 kts 314°
2026-05-05 12:16 17.97378 89.95203 34110 ft 500 kts 314°
2026-05-05 12:17 18.02277 89.90044 34111 ft 499 kts 314°
2026-05-05 12:17 18.07180 89.84877 34111 ft 500 kts 314°
2026-05-05 12:18 18.12100 89.79688 34107 ft 500 kts 314°
2026-05-05 12:18 18.16966 89.74551 34107 ft 499 kts 314°
2026-05-05 12:19 18.21887 89.69352 34108 ft 499 kts 314°
2026-05-05 12:19 18.26777 89.64181 34108 ft 499 kts 314°
2026-05-05 12:20 18.31687 89.58985 34108 ft 499 kts 314°
2026-05-05 12:20 18.36549 89.53835 34108 ft 499 kts 314°
2026-05-05 12:21 18.41440 89.48650 34109 ft 499 kts 314°
2026-05-05 12:21 18.46346 89.43443 34109 ft 500 kts 314°
2026-05-05 12:22 18.51238 89.38249 34109 ft 499 kts 314°
2026-05-05 12:22 18.56135 89.33044 33972 ft 501 kts 314°
2026-05-05 12:23 18.61024 89.27843 33962 ft 500 kts 314°
2026-05-05 12:23 18.65924 89.22625 33962 ft 500 kts 314°
2026-05-05 12:24 18.70831 89.17396 33962 ft 500 kts 314°
2026-05-05 12:24 18.75708 89.12195 33962 ft 500 kts 314°
2026-05-05 12:25 18.80609 89.06963 33963 ft 500 kts 314°
2026-05-05 12:25 18.85483 89.01755 33962 ft 500 kts 314°
2026-05-05 12:26 18.90356 88.96543 33962 ft 499 kts 315°
2026-05-05 12:26 18.95202 88.91357 33962 ft 493 kts 315°
2026-05-05 12:27 18.99996 88.86221 33961 ft 489 kts 315°
2026-05-05 12:27 19.04755 88.81119 33961 ft 487 kts 315°
2026-05-05 12:28 19.09500 88.76027 33961 ft 486 kts 315°
2026-05-05 12:28 19.14266 88.70908 33962 ft 486 kts 315°
2026-05-05 12:29 19.18976 88.65843 33961 ft 486 kts 314°
2026-05-05 12:29 19.23615 88.60638 33962 ft 486 kts 313°
2026-05-05 12:30 19.28234 88.55422 33962 ft 486 kts 314°
2026-05-05 12:30 19.32915 88.50140 33962 ft 486 kts 314°
2026-05-05 12:31 19.37559 88.44899 33962 ft 486 kts 314°
2026-05-05 12:31 19.42149 88.39716 33962 ft 486 kts 314°
2026-05-05 12:32 19.46795 88.34467 33962 ft 486 kts 313°
2026-05-05 12:32 19.51393 88.29268 33961 ft 486 kts 313°
2026-05-05 12:33 19.56033 88.24017 33961 ft 486 kts 313°
2026-05-05 12:33 19.60626 88.18815 33961 ft 486 kts 313°
2026-05-05 12:34 19.65254 88.13568 33961 ft 486 kts 313°
2026-05-05 12:34 19.69863 88.08338 33961 ft 486 kts 313°
2026-05-05 12:35 19.74497 88.03075 33961 ft 486 kts 313°
2026-05-05 12:35 19.79108 87.97833 33961 ft 486 kts 313°
2026-05-05 12:36 19.83711 87.92596 33961 ft 486 kts 313°
2026-05-05 12:36 19.88306 87.87363 33961 ft 486 kts 313°
2026-05-05 12:37 19.92967 87.82050 33961 ft 486 kts 313°
2026-05-05 12:37 19.97571 87.76798 33961 ft 486 kts 313°
2026-05-05 12:38 20.02179 87.71536 33961 ft 486 kts 313°
2026-05-05 12:38 20.06801 87.66253 33961 ft 486 kts 313°
2026-05-05 12:39 20.11389 87.61004 33962 ft 486 kts 313°
2026-05-05 12:39 20.15984 87.55742 33962 ft 486 kts 313°
2026-05-05 12:40 20.20578 87.50476 33962 ft 486 kts 313°
2026-05-05 12:40 20.25167 87.45213 33962 ft 486 kts 313°
2026-05-05 12:41 20.29764 87.39932 33962 ft 486 kts 313°
2026-05-05 12:41 20.34364 87.34646 33962 ft 486 kts 313°
2026-05-05 12:42 20.38965 87.29352 33961 ft 486 kts 313°
2026-05-05 12:42 20.43535 87.24090 33961 ft 486 kts 313°
2026-05-05 12:43 20.48119 87.18799 33961 ft 486 kts 313°
2026-05-05 12:43 20.52637 87.13472 33961 ft 486 kts 312°
2026-05-05 12:44 20.57168 87.08121 33961 ft 486 kts 312°
2026-05-05 12:44 20.61695 87.02773 33961 ft 485 kts 312°
2026-05-05 12:45 20.66252 86.97419 33961 ft 484 kts 313°
2026-05-05 12:45 20.70823 86.92157 33961 ft 483 kts 313°
2026-05-05 12:46 20.75361 86.86927 33961 ft 483 kts 313°
2026-05-05 12:46 20.78400 86.83419 33961 ft 483 kts 313°